[[{"header":{"parameterUnit":"m.s-1","parameterCategory":1,"la1":30.2991,"la2":30.254,"lo1":-89.0895,"lo2":-89.0444,"dy":0.0017,"dx":0.0017,"nx":28,"ny":28,"refTime":"2023-08-23T21:00:00:Z","depth":0,"parameterNumber":2,"parameterNumberName":"U-component_of_WINDS"},"data":[0,0,0,0,0,0,0,0,0,0,0,0,0,0,0,0,0,0,0,0,0,0,0,0,0,0,0,0,0,0,0,0,0,0,0,0,0,0,0,0,0,0,0,0,0,0,0,0,0,0,0,0,0,0,0,0,0,0,0.0511,0.0512,0,0.0606,0.0607,0.0608,0.0652,0.0652,0.0652,0.0652,0.0748,0.0751,0.0753,0,0,0,0,0,0,0,0,0,0,0,0,0,0.0364,0.0366,0.0511,0.0512,0.0513,0.0606,0.0607,0.0609,0.0652,0.0652,0.0652,0.0652,0.0747,0.075,0.0753,0,0,0,0,0,0,0,0,0,0,0,0,0,0.044,0.0367,0.0511,0.0546,0.055,0.0606,0.0607,0.0609,0.0652,0.0652,0.0652,0.0652,0.0746,0.075,0.0754,0.0781,0,0,0.0766,0.0768,0,0,0,0,0,0,0,0,0.0436,0.0446,0.054,0.0544,0.0549,0.0617,0.0591,0.0667,0.0652,0.0613,0.0652,0.0652,0.0705,0.0712,0.073,0.0785,0.0789,0.0766,0.0769,0.077,0.0772,0,0,0,0,0,0,0,0.043,0.0442,0.0549,0.0541,0.0546,0.0556,0.0567,0.0605,0.0658,0.0617,0.062,0.0631,0.0707,0.0726,0.0733,0.0791,0.0766,0.077,0.0772,0.0774,0.0872,0.0872,0,0,0,0,0,0,0.042,0.0437,0.0546,0.0551,0.0491,0.0559,0.0571,0.0595,0.0658,0.0668,0.0631,0.0633,0.0719,0.0728,0.0736,0.0771,0.077,0.0774,0.0776,0.0872,0.0872,0.0872,0,0,0,0,0,0,0.0416,0.0429,0.0542,0.0495,0.051,0.0562,0.0589,0.0597,0.0617,0.0669,0.0678,0.0641,0.072,0.0731,0.0769,0.0775,0.0776,0.078,0.0871,0.0872,0.0872,0.0842,0,0,0,0,0,0,0.0412,0.0428,0.0439,0.0495,0.0513,0.0574,0.0589,0.0599,0.0623,0.0627,0.0681,0.069,0.072,0.0763,0.0773,0.0781,0.0783,0.0871,0.0871,0.0872,0.0843,0.0841,0.084,0,0,0,0,0,0.0407,0.0427,0.0439,0.0452,0.0528,0.0574,0.0584,0.0619,0.0624,0.0635,0.0669,0.0688,0.0773,0.0767,0.0778,0.0787,0.0871,0.0871,0.0872,0.0843,0.0842,0.084,0,0,0,0,0,0,0.037,0.0435,0.045,0.0489,0.0525,0.0582,0.0597,0.0617,0.0653,0.0654,0.0696,0.0708,0.0742,0.0769,0.0761,0.0816,0.0823,0.0826,0.0798,0.0797,0.0795,0.0788,0.0786,0,0,0,0,0,0.0366,0.0399,0.0454,0.0483,0.05,0.0545,0.0567,0.0591,0.063,0.0646,0.0683,0.072,0.0755,0.0777,0.0812,0.0846,0.0859,0.0858,0.0857,0.0856,0.0858,0.0877,0.0877,0.0874,0.0874,0.0874,0,0,0.0359,0.0398,0.0417,0.0476,0.0508,0.054,0.0558,0.0592,0.0616,0.0651,0.069,0.0718,0.0762,0.0798,0.0816,0.0821,0.0861,0.0856,0.0855,0.0858,0.0877,0.0878,0.0878,0.0874,0.0874,0.0874,0,0,0.0362,0.0396,0.0424,0.0454,0.0502,0.0532,0.0538,0.0591,0.0611,0.065,0.0677,0.0706,0.0766,0.0796,0.0819,0.0832,0.0851,0.0842,0.0836,0.0854,0.0854,0.0855,0.0859,0.086,0.0844,0.0844,0.0844,0,0.0347,0.0398,0.0435,0.0467,0.0492,0.0525,0.0553,0.0581,0.0637,0.0653,0.0658,0.0733,0.0765,0.0809,0.0812,0.083,0.0838,0.0837,0.0851,0.0852,0.0853,0.0858,0.0859,0.0843,0.0843,0.0843,0.0843,0,0.0377,0.0411,0.0427,0.0481,0.0508,0.0537,0.0578,0.06,0.0621,0.065,0.0689,0.0729,0.0772,0.0784,0.0805,0.083,0.0832,0.0843,0.0852,0.0852,0.0857,0.0859,0.0841,0.0841,0.0842,0.0842,0,0,0.0361,0.0434,0.044,0.0464,0.0518,0.0545,0.0575,0.0618,0.0636,0.0673,0.0699,0.0748,0.0759,0.0785,0.0809,0.0825,0.0832,0.0835,0.0836,0.0833,0.0862,0.0853,0.0855,0.0845,0.0845,0.0846,0.0858,0,0.0372,0.0429,0.0463,0.0505,0.0537,0.0568,0.0595,0.063,0.0657,0.0687,0.0717,0.0751,0.0763,0.0779,0.0796,0.0828,0.0839,0.0827,0.0869,0.087,0.0858,0.0858,0.0849,0.0859,0.0861,0.0861,0.0861,0,0.0393,0.0429,0.0475,0.0525,0.054,0.0563,0.0604,0.0633,0.0673,0.0691,0.072,0.0744,0.0776,0.0781,0.0826,0.0817,0.0836,0.0854,0.0855,0.0861,0.0866,0.0863,0.0863,0.0864,0.0865,0.0864,0.0864,0,0.0376,0.0437,0.0472,0.0492,0.0551,0.0567,0.0592,0.0632,0.0655,0.0691,0.0706,0.0745,0.0766,0.0795,0.0828,0.0829,0.0869,0.0877,0.0885,0.0884,0.0893,0.0892,0.0895,0.0904,0.0904,0.0904,0.0904,0,0.0385,0.0412,0.0466,0.0487,0.0518,0.0556,0.0584,0.0612,0.0647,0.0674,0.0703,0.0727,0.077,0.08,0.0826,0.0858,0.0868,0.0883,0.089,0.0881,0.0879,0.0894,0.0894,0.0904,0.0904,0.0904,0.0904,0,0.0373,0.041,0.045,0.0502,0.0516,0.0536,0.058,0.0602,0.063,0.0664,0.0674,0.0718,0.0754,0.079,0.0838,0.0856,0.0887,0.0896,0.0874,0.0878,0.0884,0.0882,0.0897,0.0901,0.0907,0.0907,0.0907,0,0.0376,0.0398,0.0452,0.0472,0.0497,0.0529,0.0553,0.059,0.0614,0.066,0.0676,0.0714,0.0747,0.0802,0.0838,0.0875,0.0885,0.0888,0.0891,0.0881,0.0885,0.0884,0.0886,0.0887,0.0886,0.0886,0.0886,0,0.0378,0.0395,0.0429,0.0469,0.0496,0.0529,0.0563,0.0577,0.0621,0.0645,0.0683,0.0708,0.0757,0.0794,0.0835,0.086,0.088,0.0884,0.0888,0.0879,0.0866,0.0873,0.0871,0.0884,0.0884,0.0884,0.0885,0.0885,0.0374,0.0394,0.0436,0.0472,0.0501,0.0532,0.0554,0.0585,0.0617,0.066,0.068,0.0717,0.0756,0.0813,0.0837,0.0866,0.0871,0.0877,0.0878,0.0879,0.0877,0.086,0.0873,0.0873,0.0874,0.0874,0.0874,0,0.0378,0.0406,0.0439,0.0485,0.0513,0.0529,0.0567,0.0589,0.0622,0.0656,0.0688,0.073,0.0765,0.0804,0.0841,0.0857,0.0867,0.0866,0.0865,0.0871,0.087,0.0863,0.0857,0.0857,0.0857,0.0857,0.0857,0.0857,0.0383,0.0418,0.044,0.0489,0.0517,0.0554,0.0574,0.0602,0.0629,0.0675,0.0705,0.073,0.0766,0.0806,0.0839,0.0849,0.0862,0.0858,0.0871,0.087,0.0871,0.0872,0.0866,0.086,0.086,0.0869,0.0869,0.0869]},{"header":{"parameterUnit":"m.s-1","parameterCategory":1,"la1":30.2991,"la2":30.254,"lo1":-89.0895,"lo2":-89.0444,"dy":0.0017,"dx":0.0017,"nx":28,"ny":28,"refTime":"2023-08-23T21:00:00:Z","depth":0,"parameterNumber":3,"parameterNumberName":"V-component_of_WINDS"},"data":[0,0,0,0,0,0,0,0,0,0,0,0,0,0,0,0,0,0,0,0,0,0,0,0,0,0,0,0,0,0,0,0,0,0,0,0,0,0,0,0,0,0,0,0,0,0,0,0,0,0,0,0,0,0,0,0,0,0,2.6485,2.6484,0,2.6401,2.64,2.6399,2.637,2.637,2.637,2.6371,2.6279,2.6277,2.6274,0,0,0,0,0,0,0,0,0,0,0,0,0,2.6615,2.6613,2.6485,2.6484,2.6483,2.6401,2.64,2.6399,2.637,2.637,2.637,2.6371,2.628,2.6277,2.6274,0,0,0,0,0,0,0,0,0,0,0,0,0,2.6548,2.6612,2.6485,2.6458,2.6455,2.6401,2.64,2.6399,2.6369,2.637,2.637,2.6371,2.6281,2.6277,2.6273,2.6238,0,0,2.6261,2.6259,0,0,0,0,0,0,0,0,2.6552,2.6543,2.6463,2.646,2.6456,2.6396,2.6413,2.6345,2.6369,2.6402,2.6371,2.6371,2.6318,2.6311,2.6294,2.6234,2.623,2.626,2.6258,2.6256,2.6255,0,0,0,0,0,0,0,2.6556,2.6546,2.6451,2.6462,2.6458,2.6449,2.644,2.64,2.6358,2.6399,2.6397,2.6387,2.6316,2.6298,2.6291,2.6229,2.6261,2.6257,2.6254,2.6253,2.6138,2.6138,0,0,0,0,0,0,2.6566,2.6551,2.6454,2.6449,2.6506,2.6447,2.6437,2.6415,2.6358,2.635,2.6387,2.6386,2.6304,2.6296,2.6288,2.6244,2.6256,2.6252,2.625,2.6139,2.6138,2.6138,0,0,0,0,0,0,2.6569,2.6558,2.6457,2.6499,2.6486,2.6444,2.642,2.6413,2.6395,2.6349,2.6341,2.6377,2.6304,2.6294,2.6252,2.6241,2.6251,2.6247,2.614,2.6139,2.6138,2.6156,0,0,0,0,0,0,2.6573,2.6559,2.6546,2.6499,2.6484,2.6424,2.6419,2.6411,2.6389,2.6387,2.6337,2.6329,2.6304,2.6258,2.6248,2.6235,2.6244,2.614,2.6139,2.6138,2.6156,2.6156,2.6156,0,0,0,0,0,2.6578,2.6552,2.6545,2.6534,2.6466,2.6423,2.6414,2.6387,2.6388,2.6374,2.6345,2.6331,2.6244,2.6254,2.6242,2.6228,2.6141,2.614,2.6138,2.6156,2.6156,2.6156,0,0,0,0,0,0,2.6596,2.6546,2.6537,2.6496,2.6465,2.6418,2.6399,2.6387,2.6352,2.6352,2.6318,2.6307,2.6268,2.6244,2.6256,2.6192,2.6192,2.6188,2.6209,2.6209,2.6208,2.6214,2.624,0,0,0,0,0,2.6596,2.6566,2.6523,2.6491,2.6476,2.6441,2.6421,2.6403,2.6368,2.6354,2.6321,2.6287,2.6252,2.6229,2.6194,2.6153,2.6142,2.6138,2.6138,2.6138,2.6134,2.6113,2.611,2.6133,2.6133,2.6133,0,0,2.6594,2.6563,2.6546,2.6494,2.6468,2.6437,2.6429,2.6396,2.6373,2.6348,2.6307,2.6283,2.6242,2.6201,2.6181,2.6179,2.6126,2.6136,2.6136,2.6133,2.6111,2.6109,2.6107,2.6133,2.6133,2.6133,0,0,2.6575,2.6549,2.652,2.6494,2.6455,2.6433,2.6426,2.6382,2.6366,2.6325,2.6306,2.6277,2.6217,2.619,2.6167,2.6142,2.6128,2.6132,2.6129,2.6109,2.6107,2.6105,2.6096,2.6094,2.6129,2.6129,2.6129,0,2.6577,2.6531,2.6506,2.6475,2.6454,2.6433,2.6404,2.6379,2.633,2.6315,2.6314,2.6241,2.6211,2.6164,2.6159,2.6142,2.6133,2.6136,2.6109,2.6107,2.6105,2.6097,2.6093,2.613,2.613,2.6129,2.6129,0,2.6536,2.6505,2.6486,2.6442,2.6418,2.6388,2.6358,2.6337,2.6323,2.63,2.6259,2.6224,2.6183,2.6171,2.6155,2.6122,2.6122,2.6116,2.6114,2.6104,2.6096,2.6092,2.6131,2.613,2.613,2.613,0,0,2.6523,2.6469,2.6462,2.6443,2.64,2.6374,2.6344,2.6306,2.6289,2.6256,2.623,2.6181,2.6176,2.6152,2.6133,2.6115,2.6098,2.6111,2.6109,2.611,2.6061,2.6065,2.6062,2.6089,2.6089,2.6088,2.6064,0,2.6498,2.6445,2.6423,2.6379,2.635,2.6332,2.6305,2.6276,2.6255,2.6226,2.6202,2.6169,2.6165,2.615,2.6131,2.6104,2.6088,2.6106,2.6063,2.6062,2.6074,2.6057,2.6061,2.604,2.6061,2.606,2.606,0,2.6461,2.6432,2.6386,2.6349,2.6336,2.6313,2.6277,2.6251,2.6217,2.6203,2.6178,2.6161,2.6128,2.6131,2.6085,2.6098,2.608,2.6064,2.6063,2.6056,2.6059,2.605,2.6032,2.6029,2.6054,2.6054,2.6055,0,2.6457,2.6405,2.6372,2.6356,2.6311,2.6296,2.6276,2.6244,2.6223,2.6192,2.6178,2.6143,2.6124,2.6097,2.6071,2.6075,2.6028,2.6028,2.6015,2.6015,2.6004,2.6005,2.5983,2.5994,2.5994,2.5994,2.5994,0,2.6431,2.6403,2.637,2.6349,2.6318,2.6293,2.6263,2.6242,2.6214,2.6188,2.617,2.6146,2.6114,2.6086,2.6066,2.6032,2.6023,2.601,2.6005,2.6011,2.6013,2.5998,2.5998,2.5993,2.5993,2.5994,2.5994,0,2.6419,2.6396,2.6358,2.6321,2.6311,2.629,2.6257,2.6236,2.6216,2.6184,2.6175,2.6142,2.6109,2.6081,2.6036,2.6023,2.5987,2.5981,2.5999,2.5996,2.5985,2.5986,2.5951,2.5946,2.5961,2.5961,2.5961,0,2.6404,2.6383,2.6345,2.6328,2.6309,2.6281,2.6261,2.6237,2.6217,2.6179,2.6163,2.6129,2.61,2.6047,2.6019,2.5985,2.5978,2.5968,2.5972,2.598,2.5977,2.5979,2.5977,2.5967,2.5967,2.5967,2.5967,0,2.6379,2.6369,2.6342,2.6311,2.6289,2.6263,2.6236,2.6223,2.6194,2.6172,2.6139,2.6117,2.6074,2.604,2.6004,2.5983,2.597,2.5967,2.5962,2.5967,2.5979,2.5973,2.5998,2.5967,2.5967,2.5967,2.5967,2.5967,2.6364,2.6346,2.6317,2.6288,2.6266,2.6243,2.6222,2.6201,2.6173,2.6137,2.6125,2.6091,2.606,2.6011,2.599,2.5963,2.5961,2.5954,2.5952,2.5951,2.5952,2.5985,2.5956,2.5956,2.5956,2.5956,2.5956,0,2.6338,2.632,2.6294,2.6259,2.6237,2.623,2.6201,2.6182,2.6153,2.6127,2.61,2.6063,2.6031,2.6002,2.5969,2.5953,2.5946,2.5945,2.5945,2.594,2.5955,2.5963,2.5951,2.5951,2.5951,2.5951,2.5951,2.5951,2.6322,2.6291,2.6278,2.6236,2.6218,2.6186,2.6171,2.6149,2.6128,2.6088,2.6063,2.6045,2.6017,2.5982,2.5953,2.5945,2.5934,2.5934,2.5924,2.5938,2.5939,2.594,2.5947,2.5932,2.5932,2.5912,2.5912,2.5912]}]]